Location: Pedro
(43.9050°N, 104.3408°W)
Time: 16:21:52
(UTC+00:00)

AO-85 - Pass Details

Date: 09 December 2023
Orbit: 516 x 753 km, 64.8° (Epoch: 04 January)

Event Time Altitude Azimuth Distance (km) Brightness Sun altitude
Rises 02:03:09 0° 332° (NNW) 2,874 ? -28.6°
Reaches altitude 10° 02:05:33 10° 342° (NNW) 2,005 ? -29.0°
Enters shadow 02:05:38 10° 342° (NNW) 1,979 ? -29.0°
